Tracking 29494 objects as of 8-Sep-2024
HD Live streaming from Space Station
objects crossing your sky now

COSMOS 2491 DEB

Track COSMOS 2491 DEB now!
10-day predictions


NORAD ID: 57568
Int'l Code: 2013-076BF
Perigee: 1,361.6 km
Apogee: 1,473.2 km
Inclination: 82.5 °
Period: 114.0 minutes
Semi major axis: 7788 km
RCS: Unknown
Launch date: December 25, 2013
Source: Commonwealth of Independent States (former USSR) (CIS)
Launch site: PLESETSK MISSILE AND SPACE COMPLEX (PKMTR)

Note: This is SATELLITE DEBRIS
Your satellite tracking list
Your tracking list is empty




NASA's NSSDC Master Catalog

Two Line Element Set (TLE):
1 57568U 13076BF  24246.55290960  .00001720  00000-0  93722-2 0  9997
2 57568  82.4923 182.9777 0071611 248.5377 110.8067 12.63078990 60761
Source of the keplerian elements: AFSPC